Christchurch, New Zealand

7:54 AM NZDT on October 20, 2017 (GMT +1300)
Christchurch

Weather History for 93780 - March, 2013

Change the Weather History Date:

Sunday, March 24, 2013

  Actual Average Record
Temperature  
Mean Temperature 62 °F -  
Max Temperature 77 °F 61 °F - ()
Min Temperature 46 °F 43 °F - ()
Degree Days  
Heating Degree Days 4    
Growing Degree Days 12 (Base 50)    
Moisture  
Dew Point 47 °F    
Average Humidity 69    
Maximum Humidity 100    
Minimum Humidity 28    
Precipitation  
Precipitation 0.00 in - - ()
Sea Level Pressure  
Sea Level Pressure 30.11 in    
Wind  
Wind Speed 2 mph ()    
Max Wind Speed 8 mph    
Max Gust Speed -    
T = Trace of Precipitation, MM = Missing Value Source: Averaged Metar Reports

Daily Weather History Graph

Daily Weather History Graph

Search for Another Location

Airport or City:

Trip Planner

Search our weather history database for the weather conditions in past years. The results will help you decide how hot, cold, wet, or windy it might be!

Date:

Astronomy

Mar. 24, 2013 Rise Set
Actual Time 7:36 AM NZDT 7:34 PM NZDT
Civil Twilight 7:08 AM NZDT 8:03 PM NZDT
Nautical Twilight 6:34 AM NZDT 8:36 PM NZDT
Astronomical Twilight 6:00 AM NZDT 9:10 PM NZDT
Moon 5:34 PM NZDT (3/24) 3:51 AM NZDT (3/24)
Length of Visible Light 12h 55m
Length of Day
11h 58m
Waxing Gibbous, 87% of the Moon is Illuminated
Mar 24
Waxing Gibbous
Mar 27
Full
Apr 3
Last Quarter
Apr 10
New
Apr 19
First Quarter

Hourly Weather History & Observations

Time (NZDT) Temp. Dew Point Humidity Pressure Visibility Wind Dir Wind Speed Gust Speed Precip Events Conditions
12:00 AM 48.2 °F 46.4 °F 93% 30.15 in - West 1.2 mph - N/A   Clear
1:00 AM 50.0 °F 48.2 °F 94% 30.15 in - NNE 2.3 mph - N/A   Clear
2:00 AM 50.0 °F 48.2 °F 94% 30.15 in - NE 1.2 mph - N/A   Clear
3:00 AM 46.4 °F 46.4 °F 100% 30.15 in - Calm Calm - N/A   Clear
4:00 AM 48.2 °F 48.2 °F 100% 30.12 in - NNE 2.3 mph - N/A   Clear
5:00 AM 46.4 °F 44.6 °F 93% 30.12 in - North 2.3 mph - N/A   Clear
6:00 AM 46.4 °F 44.6 °F 93% 30.12 in - North 1.2 mph - N/A   Clear
7:00 AM 46.4 °F 44.6 °F 93% 30.09 in - Calm Calm - N/A   Clear
8:00 AM 46.4 °F 46.4 °F 100% 30.12 in - Calm Calm - N/A   Clear
9:00 AM 50.0 °F 50.0 °F 100% 30.12 in - NE 2.3 mph - N/A   Clear
10:00 AM 57.2 °F 55.4 °F 94% 30.12 in - Calm Calm - N/A   Clear
11:00 AM 62.6 °F 53.6 °F 72% 30.15 in - NE 3.5 mph - N/A   Clear
12:00 PM 68.0 °F 50.0 °F 52% 30.12 in - ENE 4.6 mph - N/A   Clear
1:00 PM 69.8 °F 48.2 °F 46% 30.12 in - NE 4.6 mph - N/A   Clear
2:00 PM 73.4 °F 46.4 °F 38% 30.12 in - NNE 4.6 mph - N/A   Clear
3:00 PM 73.4 °F 44.6 °F 36% 30.09 in - ENE 4.6 mph - N/A   Clear
4:00 PM 75.2 °F 44.6 °F 34% 30.09 in - NNE 6.9 mph - N/A   Clear
5:00 PM 77.0 °F 41.0 °F 28% 30.06 in - SSW 2.3 mph - N/A   Clear
6:00 PM 75.2 °F 44.6 °F 34% 30.06 in - NNE 2.3 mph - N/A   Clear
7:00 PM 71.6 °F 39.2 °F 31% 30.06 in - NW 8.1 mph - N/A   Clear
8:00 PM 66.2 °F 42.8 °F 43% 30.06 in - West 3.5 mph - N/A   Clear
9:00 PM 60.8 °F 44.6 °F 55% 30.09 in - WNW 2.3 mph - N/A   Clear
10:00 PM 59.0 °F 46.4 °F 63% 30.09 in - SW 2.3 mph - N/A   Clear
11:00 PM 59.0 °F 48.2 °F 67% 30.09 in - SSW 1.2 mph - N/A   Clear